Time,TemperatureF,DewpointF,PressureIn,WindDirection,WindDirectionDegrees,WindSpeedMPH,WindSpeedGustMPH,Humidity,HourlyPrecipIn,Conditions,Clouds,dailyrainin,SoftwareType,DateUTC
2013-04-17 00:03:00,42.0,36.0,30.25,North,359,0.0,0.0,79,0.03,,,-99.99,,2013-04-17 04:03:00,
2013-04-17 00:13:00,42.0,36.0,30.25,North,359,0.0,0.0,79,0.03,,,-99.99,,2013-04-17 04:13:00,
2013-04-17 00:23:00,42.0,36.0,30.25,North,359,0.0,0.0,80,0.03,,,-99.99,,2013-04-17 04:23:00,
2013-04-17 00:33:00,41.0,36.0,30.26,North,359,0.0,0.0,81,0.03,,,-99.99,,2013-04-17 04:33:00,
2013-04-17 00:42:00,41.0,36.0,30.26,North,359,0.0,0.0,81,0.03,,,-99.99,,2013-04-17 04:42:00,
2013-04-17 00:53:00,41.0,36.0,30.27,North,359,0.0,0.0,82,0.03,,,-99.99,,2013-04-17 04:53:00,
2013-04-17 01:03:00,41.0,36.0,30.27,North,359,0.0,0.0,83,0.03,,,-99.99,,2013-04-17 05:03:00,
2013-04-17 01:12:00,41.0,36.0,30.27,North,359,0.0,0.0,83,0.03,,,-99.99,,2013-04-17 05:12:00,
2013-04-17 01:22:00,41.0,36.0,30.27,North,359,0.0,0.0,83,0.03,,,-99.99,,2013-04-17 05:22:00,
2013-04-17 01:32:00,40.0,36.0,30.27,North,359,0.0,0.0,85,0.03,,,-99.99,,2013-04-17 05:32:00,
2013-04-17 01:43:00,40.0,36.0,30.27,North,359,0.0,0.0,85,0.03,,,-99.99,,2013-04-17 05:43:00,
2013-04-17 01:52:00,41.0,37.0,30.29,North,359,0.0,0.0,85,0.03,,,-99.99,,2013-04-17 05:52:00,
2013-04-17 02:02:00,41.0,37.0,30.30,North,359,0.0,0.0,85,0.03,,,-99.99,,2013-04-17 06:02:00,
2013-04-17 02:12:00,41.0,37.0,30.30,North,359,0.0,0.0,85,0.03,,,-99.99,,2013-04-17 06:12:00,
2013-04-17 02:22:00,41.0,37.0,30.30,North,359,0.0,0.0,84,0.03,,,-99.99,,2013-04-17 06:22:00,
2013-04-17 02:32:00,41.0,37.0,30.30,North,359,0.0,0.0,85,0.03,,,-99.99,,2013-04-17 06:32:00,
2013-04-17 02:42:00,41.0,37.0,30.30,North,359,0.0,0.0,85,0.03,,,-99.99,,2013-04-17 06:42:00,
2013-04-17 02:52:00,41.0,36.0,30.30,North,359,0.0,0.0,83,0.03,,,-99.99,,2013-04-17 06:52:00,
2013-04-17 03:02:00,41.0,36.0,30.30,North,359,0.0,0.0,82,0.03,,,-99.99,,2013-04-17 07:02:00,
2013-04-17 03:12:00,41.0,36.0,30.30,North,359,0.0,0.0,82,0.03,,,-99.99,,2013-04-17 07:12:00,
2013-04-17 03:22:00,42.0,37.0,30.30,North,359,0.0,0.0,81,0.03,,,-99.99,,2013-04-17 07:22:00,
2013-04-17 03:32:00,42.0,36.0,30.30,North,359,0.0,0.0,78,0.03,,,-99.99,,2013-04-17 07:32:00,
2013-04-17 03:42:00,42.0,36.0,30.30,North,359,0.0,0.0,78,0.03,,,-99.99,,2013-04-17 07:42:00,
2013-04-17 03:52:00,42.0,35.0,30.31,North,359,0.0,0.0,77,0.03,,,-99.99,,2013-04-17 07:52:00,
2013-04-17 04:02:00,42.0,35.0,30.32,North,359,0.0,0.0,77,0.03,,,-99.99,,2013-04-17 08:02:00,
2013-04-17 04:12:00,42.0,35.0,30.32,North,359,0.0,0.0,77,0.03,,,-99.99,,2013-04-17 08:12:00,
2013-04-17 04:22:00,42.0,36.0,30.32,North,359,0.0,0.0,78,0.03,,,-99.99,,2013-04-17 08:22:00,
2013-04-17 04:32:00,42.0,36.0,30.33,North,359,0.0,0.0,78,0.03,,,-99.99,,2013-04-17 08:32:00,
2013-04-17 04:42:00,42.0,36.0,30.33,North,359,0.0,0.0,78,0.03,,,-99.99,,2013-04-17 08:42:00,
2013-04-17 04:52:00,42.0,36.0,30.32,North,359,0.0,0.0,78,0.03,,,-99.99,,2013-04-17 08:52:00,
2013-04-17 05:02:00,41.0,35.0,30.33,North,359,0.0,0.0,79,0.03,,,-99.99,,2013-04-17 09:02:00,
2013-04-17 05:12:00,41.0,35.0,30.33,North,359,0.0,0.0,79,0.03,,,-99.99,,2013-04-17 09:12:00,
2013-04-17 05:22:00,41.0,35.0,30.33,North,359,0.0,0.0,80,0.03,,,-99.99,,2013-04-17 09:22:00,
2013-04-17 05:33:00,41.0,36.0,30.33,North,359,0.0,0.0,81,0.03,,,-99.99,,2013-04-17 09:33:00,
2013-04-17 05:42:00,41.0,36.0,30.33,North,359,0.0,0.0,81,0.03,,,-99.99,,2013-04-17 09:42:00,
2013-04-17 05:52:00,41.0,36.0,30.33,North,359,0.0,0.0,83,0.03,,,-99.99,,2013-04-17 09:52:00,
2013-04-17 06:03:00,40.0,36.0,30.31,North,359,0.0,0.0,85,0.03,,,-99.99,,2013-04-17 10:03:00,
2013-04-17 06:12:00,40.0,36.0,30.31,North,359,0.0,0.0,85,0.03,,,-99.99,,2013-04-17 10:12:00,
2013-04-17 06:23:00,40.0,36.0,30.32,North,359,0.0,0.0,86,0.03,,,-99.99,,2013-04-17 10:23:00,
2013-04-17 06:32:00,40.0,37.0,30.31,North,359,0.0,0.0,88,0.03,,,-99.99,,2013-04-17 10:32:00,
2013-04-17 06:43:00,40.0,37.0,30.31,North,359,0.0,0.0,88,0.03,,,-99.99,,2013-04-17 10:43:00,
2013-04-17 06:52:00,40.0,38.0,30.30,North,359,0.0,0.0,91,0.03,,,-99.99,,2013-04-17 10:52:00,
2013-04-17 07:02:00,39.0,37.0,30.32,North,359,0.0,0.0,92,0.03,,,-99.99,,2013-04-17 11:02:00,
2013-04-17 07:12:00,39.0,37.0,30.32,North,359,0.0,0.0,92,0.03,,,-99.99,,2013-04-17 11:12:00,
2013-04-17 07:22:00,39.0,37.0,30.31,North,359,0.0,0.0,93,0.03,,,-99.99,,2013-04-17 11:22:00,
2013-04-17 07:32:00,39.0,37.0,30.32,North,359,0.0,0.0,94,0.03,,,-99.99,,2013-04-17 11:32:00,
2013-04-17 07:42:00,39.0,37.0,30.32,North,359,0.0,0.0,94,0.03,,,-99.99,,2013-04-17 11:42:00,
2013-04-17 07:52:00,39.0,37.0,30.32,North,359,0.0,0.0,94,0.03,,,-99.99,,2013-04-17 11:52:00,
2013-04-17 08:03:00,39.0,37.0,30.32,North,359,0.0,0.0,94,0.03,,,-99.99,,2013-04-17 12:03:00,
2013-04-17 08:12:00,39.0,37.0,30.32,North,359,0.0,0.0,94,0.03,,,-99.99,,2013-04-17 12:12:00,
2013-04-17 08:22:00,39.0,37.0,30.32,North,359,0.0,0.0,94,0.03,,,-99.99,,2013-04-17 12:22:00,
2013-04-17 08:32:00,40.0,39.0,30.32,North,359,0.0,0.0,95,0.03,,,-99.99,,2013-04-17 12:32:00,
2013-04-17 08:42:00,40.0,39.0,30.32,North,359,0.0,0.0,95,0.03,,,-99.99,,2013-04-17 12:42:00,
2013-04-17 08:52:00,40.0,38.0,30.31,North,359,0.0,0.0,93,0.03,,,-99.99,,2013-04-17 12:52:00,
2013-04-17 09:02:00,41.0,39.0,30.31,North,359,0.0,0.0,92,0.03,,,-99.99,,2013-04-17 13:02:00,
2013-04-17 09:12:00,41.0,39.0,30.31,North,359,0.0,0.0,92,0.03,,,-99.99,,2013-04-17 13:12:00,
2013-04-17 09:22:00,41.0,39.0,30.31,North,359,0.0,0.0,92,0.03,,,-99.99,,2013-04-17 13:22:00,
2013-04-17 09:32:00,42.0,39.0,30.32,East,100,9.0,0.0,90,0.03,,,-99.99,,2013-04-17 13:32:00,
2013-04-17 09:42:00,42.0,39.0,30.32,East,100,9.0,0.0,90,0.03,,,-99.99,,2013-04-17 13:42:00,
2013-04-17 09:52:00,42.0,39.0,30.32,East,100,9.0,0.0,90,0.03,,,-99.99,,2013-04-17 13:52:00,
2013-04-17 10:02:00,43.0,38.0,30.30,ESE,122,0.0,0.0,81,0.03,,,-99.99,,2013-04-17 14:02:00,
2013-04-17 10:12:00,43.0,38.0,30.30,ESE,122,0.0,0.0,81,0.03,,,-99.99,,2013-04-17 14:12:00,
2013-04-17 10:22:00,44.0,38.0,30.30,ESE,122,0.0,0.0,79,0.03,,,-99.99,,2013-04-17 14:22:00,
2013-04-17 10:32:00,45.0,39.0,30.30,ESE,122,0.0,0.0,80,0.03,,,-99.99,,2013-04-17 14:32:00,
2013-04-17 10:42:00,46.0,39.0,30.30,ESE,122,0.0,0.0,76,0.03,,,-99.99,,2013-04-17 14:42:00,
2013-04-17 10:52:00,46.0,39.0,30.30,ESE,122,0.0,0.0,76,0.03,,,-99.99,,2013-04-17 14:52:00,
2013-04-17 11:02:00,46.0,37.0,30.31,ESE,122,0.0,0.0,72,0.03,,,-99.99,,2013-04-17 15:02:00,
2013-04-17 11:12:00,46.0,37.0,30.30,ENE,65,13.0,0.0,70,0.03,,,-99.99,,2013-04-17 15:12:00,
2013-04-17 11:22:00,46.0,37.0,30.30,ENE,65,13.0,0.0,70,0.03,,,-99.99,,2013-04-17 15:22:00,
2013-04-17 11:33:00,47.0,37.0,30.31,ENE,68,13.0,0.0,69,0.03,,,-99.99,,2013-04-17 15:33:00,
2013-04-17 11:43:00,47.0,37.0,30.31,ENE,68,13.0,0.0,69,0.03,,,-99.99,,2013-04-17 15:43:00,
2013-04-17 11:53:00,47.0,36.0,30.28,NE,49,18.0,0.0,65,0.03,,,-99.99,,2013-04-17 15:53:00,
2013-04-17 12:03:00,48.0,37.0,30.28,East,80,14.0,0.0,66,0.03,,,-99.99,,2013-04-17 16:03:00,
2013-04-17 12:12:00,48.0,37.0,30.28,East,80,14.0,0.0,66,0.03,,,-99.99,,2013-04-17 16:12:00,
2013-04-17 12:23:00,48.0,37.0,30.30,ENE,65,12.0,0.0,66,0.03,,,-99.99,,2013-04-17 16:23:00,
2013-04-17 12:32:00,49.0,38.0,30.30,ENE,59,13.0,0.0,65,0.03,,,-99.99,,2013-04-17 16:32:00,
2013-04-17 12:42:00,49.0,38.0,30.30,ENE,59,13.0,0.0,65,0.03,,,-99.99,,2013-04-17 16:42:00,
2013-04-17 12:52:00,49.0,37.0,30.28,East,93,12.0,0.0,64,0.03,,,-99.99,,2013-04-17 16:52:00,
2013-04-17 13:02:00,49.0,38.0,30.29,SE,136,9.0,0.0,65,0.03,,,-99.99,,2013-04-17 17:02:00,
2013-04-17 13:12:00,49.0,38.0,30.29,SE,136,9.0,0.0,65,0.03,,,-99.99,,2013-04-17 17:12:00,
2013-04-17 13:22:00,49.0,38.0,30.29,SE,136,9.0,0.0,65,0.03,,,-99.99,,2013-04-17 17:22:00,
2013-04-17 13:33:00,48.0,39.0,30.19,ESE,108,17.0,0.0,70,0.03,,,-99.99,,2013-04-17 17:33:00,
2013-04-17 13:42:00,48.0,39.0,30.19,ESE,108,17.0,0.0,70,0.03,,,-99.99,,2013-04-17 17:42:00,
2013-04-17 13:52:00,48.0,39.0,30.16,East,80,16.0,0.0,70,0.03,,,-99.99,,2013-04-17 17:52:00,
2013-04-17 14:02:00,48.0,39.0,30.16,East,80,16.0,0.0,70,0.03,,,-99.99,,2013-04-17 18:02:00,
2013-04-17 14:12:00,48.0,39.0,30.16,East,80,16.0,0.0,70,0.03,,,-99.99,,2013-04-17 18:12:00,
2013-04-17 14:22:00,49.0,40.0,30.21,NE,37,12.0,0.0,71,0.03,,,-99.99,,2013-04-17 18:22:00,
2013-04-17 14:32:00,49.0,40.0,30.22,ESE,121,11.0,0.0,71,0.03,,,-99.99,,2013-04-17 18:32:00,
2013-04-17 14:42:00,49.0,40.0,30.22,ESE,121,11.0,0.0,71,0.03,,,-99.99,,2013-04-17 18:42:00,
2013-04-17 14:52:00,48.0,39.0,30.22,East,87,13.0,0.0,72,0.03,,,-99.99,,2013-04-17 18:52:00,
2013-04-17 15:02:00,48.0,40.0,30.22,ENE,62,13.0,0.0,73,0.03,,,-99.99,,2013-04-17 19:02:00,
2013-04-17 15:12:00,48.0,40.0,30.22,ENE,62,13.0,0.0,73,0.03,,,-99.99,,2013-04-17 19:12:00,
2013-04-17 15:22:00,48.0,40.0,30.22,ENE,62,13.0,0.0,73,0.03,,,-99.99,,2013-04-17 19:22:00,
2013-04-17 15:32:00,48.0,40.0,30.22,ENE,62,13.0,0.0,73,0.03,,,-99.99,,2013-04-17 19:32:00,
2013-04-17 15:42:00,48.0,40.0,30.22,ENE,62,13.0,0.0,73,0.03,,,-99.99,,2013-04-17 19:42:00,
2013-04-17 15:52:00,47.0,41.0,30.23,SE,127,11.0,0.0,78,0.03,,,-99.99,,2013-04-17 19:52:00,
2013-04-17 16:03:00,47.0,42.0,30.21,ESE,115,7.0,0.0,84,0.03,,,-99.99,,2013-04-17 20:03:00,
2013-04-17 16:12:00,47.0,42.0,30.21,ESE,115,7.0,0.0,84,0.03,,,-99.99,,2013-04-17 20:12:00,
2013-04-17 16:22:00,46.0,44.0,30.14,East,87,13.0,0.0,93,0.03,,,-99.99,,2013-04-17 20:22:00,
2013-04-17 16:33:00,45.0,44.0,30.14,ENE,62,14.0,0.0,95,0.03,,,-99.99,,2013-04-17 20:33:00,
2013-04-17 16:42:00,45.0,44.0,30.14,ENE,62,14.0,0.0,95,0.03,,,-99.99,,2013-04-17 20:42:00,
2013-04-17 16:52:00,45.0,44.0,30.14,ENE,62,14.0,0.0,95,0.03,,,-99.99,,2013-04-17 20:52:00,
2013-04-17 17:03:00,45.0,44.0,30.14,ENE,62,14.0,0.0,95,0.03,,,-99.99,,2013-04-17 21:03:00,
2013-04-17 17:12:00,45.0,44.0,30.14,ENE,62,14.0,0.0,95,0.03,,,-99.99,,2013-04-17 21:12:00,
2013-04-17 17:22:00,44.0,43.0,30.13,ENE,59,17.0,0.0,98,0.03,,,-99.99,,2013-04-17 21:22:00,
2013-04-17 17:33:00,44.0,43.0,30.13,ENE,59,17.0,0.0,98,0.03,,,-99.99,,2013-04-17 21:33:00,
2013-04-17 17:43:00,44.0,43.0,30.13,ENE,59,17.0,0.0,98,0.03,,,-99.99,,2013-04-17 21:43:00,
2013-04-17 17:53:00,43.0,43.0,30.18,NNE,32,11.0,0.0,100,0.03,,,-99.99,,2013-04-17 21:53:00,
2013-04-17 18:02:00,43.0,43.0,30.15,NE,55,12.0,0.0,100,0.03,,,-99.99,,2013-04-17 22:02:00,
2013-04-17 18:13:00,43.0,43.0,30.15,NE,55,12.0,0.0,100,0.03,,,-99.99,,2013-04-17 22:13:00,
2013-04-17 18:22:00,43.0,43.0,30.15,NE,55,12.0,0.0,100,0.03,,,-99.99,,2013-04-17 22:22:00,
2013-04-17 18:33:00,43.0,43.0,30.15,NE,55,12.0,0.0,100,0.03,,,-99.99,,2013-04-17 22:33:00,
2013-04-17 18:42:00,43.0,43.0,30.15,NE,55,12.0,0.0,100,0.03,,,-99.99,,2013-04-17 22:42:00,
2013-04-17 19:02:00,42.0,42.0,30.10,ESE,114,15.0,0.0,100,0.03,,,-99.99,,2013-04-17 23:02:00,
2013-04-17 19:12:00,42.0,42.0,30.10,ESE,114,15.0,0.0,100,0.03,,,-99.99,,2013-04-17 23:12:00,
2013-04-17 19:22:00,42.0,42.0,30.10,ESE,114,15.0,0.0,100,0.03,,,-99.99,,2013-04-17 23:22:00,
2013-04-17 19:32:00,42.0,42.0,30.06,ENE,75,16.0,0.0,100,0.03,,,-99.99,,2013-04-17 23:32:00,
2013-04-17 19:42:00,42.0,42.0,30.06,ENE,75,16.0,0.0,100,0.03,,,-99.99,,2013-04-17 23:42:00,
2013-04-17 19:52:00,43.0,43.0,30.06,ESE,108,15.0,0.0,100,0.03,,,-99.99,,2013-04-17 23:52:00,
2013-04-17 20:02:00,43.0,43.0,30.06,ESE,108,15.0,0.0,100,0.03,,,-99.99,,2013-04-18 00:02:00,
2013-04-17 20:12:00,43.0,43.0,30.06,ESE,108,15.0,0.0,100,0.03,,,-99.99,,2013-04-18 00:12:00,
2013-04-17 20:22:00,43.0,43.0,30.06,ESE,108,15.0,0.0,100,0.03,,,-99.99,,2013-04-18 00:22:00,
2013-04-17 21:12:00,43.0,43.0,30.06,SE,129,12.0,0.0,100,0.03,,,-99.99,,2013-04-18 01:12:00,
2013-04-17 21:22:00,43.0,43.0,30.06,SE,129,12.0,0.0,100,0.03,,,-99.99,,2013-04-18 01:22:00,
2013-04-17 21:32:00,43.0,43.0,30.02,ESE,121,12.0,0.0,100,0.03,,,-99.99,,2013-04-18 01:32:00,
2013-04-17 21:42:00,43.0,43.0,30.02,ESE,121,12.0,0.0,100,0.03,,,-99.99,,2013-04-18 01:42:00,
2013-04-17 21:52:00,43.0,43.0,30.03,NE,41,16.0,0.0,100,0.03,,,-99.99,,2013-04-18 01:52:00,
2013-04-17 22:02:00,43.0,43.0,30.00,NE,49,20.0,0.0,100,0.03,,,-99.99,,2013-04-18 02:02:00,
2013-04-17 22:12:00,43.0,43.0,30.00,NE,49,20.0,0.0,100,0.03,,,-99.99,,2013-04-18 02:12:00,
2013-04-17 22:22:00,43.0,43.0,29.99,ENE,60,20.0,0.0,100,0.03,,,-99.99,,2013-04-18 02:22:00,
2013-04-17 22:32:00,43.0,43.0,29.99,ENE,70,18.0,0.0,100,0.03,,,-99.99,,2013-04-18 02:32:00,
2013-04-17 22:42:00,43.0,43.0,29.99,ENE,70,18.0,0.0,100,0.03,,,-99.99,,2013-04-18 02:42:00,
2013-04-17 22:52:00,43.0,43.0,29.99,ENE,70,18.0,0.0,100,0.03,,,-99.99,,2013-04-18 02:52:00,
2013-04-17 23:02:00,43.0,43.0,30.00,ENE,60,15.0,0.0,100,0.03,,,-99.99,,2013-04-18 03:02:00,
2013-04-17 23:12:00,43.0,43.0,30.00,ENE,60,15.0,0.0,100,0.03,,,-99.99,,2013-04-18 03:12:00,
2013-04-17 23:22:00,43.0,43.0,30.00,ENE,60,15.0,0.0,100,0.03,,,-99.99,,2013-04-18 03:22:00,
2013-04-17 23:33:00,43.0,43.0,30.00,ENE,69,13.0,0.0,100,0.03,,,-99.99,,2013-04-18 03:33:00,
2013-04-17 23:43:00,43.0,43.0,29.98,ENE,59,17.0,0.0,100,0.03,,,-99.99,,2013-04-18 03:43:00,
2013-04-17 23:53:00,43.0,43.0,29.98,ENE,59,17.0,0.0,100,0.03,,,-99.99,,2013-04-18 03:53:00,